Voltar ao catálogo

COSMOS 252 DEB

AtivoLEO
NORAD 19294·DEBRIS·🇷🇺 Russia

Lançado Nov 1, 1968 de Baikonur Cosmodrome

Loading…

Próximas Passagens (próximas 24 horas)

TLE

AtualizadoSource: Space-Track

Época: Sep 14, 2026, 13:48 UTC

1 19294U 68097EE  26257.57507892  .00000439  00000-0  53219-3 0  9999
2 19294  62.2425 103.9431 0621815 339.7928  17.9407 13.14386724817028

Acompanhe COSMOS 252 DEB em tempo real com AllMySat

Download on the App Store